Vertical_Velocity
1 1 -1 -0 -1 -1 3 5 3 35 17 -0 3 -1 -0 -1 -2 -0 -1 -1 -1 1
-2 -1 10 -2 31 -9 9 2 26 -1 -7 -2 -0 3 -0 2 -1 -3 -4 -4 2 0
3 -0 -2 -4 -2 4 -3 26 10 10 4 13 25 -3 0 2 1 0 3 -1 -4 -1
10 2 10 1 8 -1 7 -1 -1 4 14 13 2 -1 4 1 -0 -0 4 3 0 2
4 4 9 2 -2 1 -0 -1 -2 4 11 20 19 3 26 6 1 1 -1 3 4 2
5 12 9 2 22 -8 19 -0 0 5 0 11 15 22 16 5 13 2 -1 4 4 0
2 3 9 7 4 14 -2 4 5 1 -0 2 2 3 2 9 17 15 13 1 -2 1
2 0 2 3 8 4 7 12 4 -0 6 1 8 12 7 13 5 0 -0 2 17 7
-0 -0 1 1 1 1 3 7 6 3 6 5 -1 -4 -2 7 1 -0 3 1 2 5
-2 -0 -0 0 1 1 1 2 2 2 1 0 1 3 5 2 2 -0 -1 2 2 2
1 -1 -0 -0 -1 -0 0 -1 -2 -1 1 3 5 3 1 -1 -4 -1 1 3 2 1
0 -0 -0 -0 1 0 0 2 1 -0 -2 -1 2 2 2 1 -0 1 2 -1 -0 1
-1 2 1 -1 -2 -1 1 1 0 1 2 2 1 3 2 -1 -2 -4 -5 6 5 1
-4 -2 -2 -1 2 1 -2 -1 -1 -1 -2 1 2 6 3 1 -4 -1 -1 -3 -0 1
Height
5569 5576 5583 5590 5594 5600 5604 5609 5615 5619 5622 5629 5631 5636 5642 5646 5651 5655 5660 5664 5669 5673
5550 5556 5566 5572 5576 5583 5587 5594 5598 5603 5607 5610 5614 5618 5625 5630 5635 5639 5645 5650 5655 5659
5534 5538 5544 5552 5560 5566 5571 5575 5580 5587 5591 5595 5597 5602 5607 5613 5618 5623 5628 5632 5637 5642
5520 5523 5529 5533 5541 5547 5554 5557 5562 5568 5574 5577 5581 5585 5589 5594 5600 5605 5610 5615 5620 5624
5503 5508 5514 5518 5522 5529 5534 5539 5545 5550 5556 5562 5564 5566 5571 5576 5583 5586 5591 5598 5603 5607
5487 5492 5497 5502 5506 5511 5517 5521 5526 5531 5537 5541 5546 5551 5556 5559 5564 5567 5573 5579 5585 5589
5472 5476 5481 5485 5490 5494 5499 5504 5509 5513 5518 5522 5528 5535 5535 5540 5547 5550 5555 5561 5565 5569
5459 5461 5463 5467 5472 5476 5481 5485 5489 5494 5499 5503 5507 5512 5515 5520 5527 5531 5534 5539 5545 5548
5445 5447 5448 5450 5452 5456 5460 5465 5470 5474 5479 5483 5488 5492 5497 5500 5506 5511 5515 5519 5525 5528
5430 5431 5433 5434 5436 5438 5441 5444 5448 5452 5457 5462 5466 5470 5474 5478 5482 5486 5491 5496 5501 5505
5412 5414 5415 5416 5419 5421 5423 5426 5429 5432 5436 5440 5443 5446 5449 5453 5457 5463 5469 5474 5478 5483
5391 5392 5394 5397 5399 5401 5404 5407 5410 5413 5416 5419 5422 5424 5427 5430 5435 5440 5445 5449 5453 5458
5369 5370 5371 5373 5376 5379 5382 5385 5388 5392 5395 5399 5402 5405 5406 5408 5411 5417 5422 5427 5430 5434
5343 5344 5346 5348 5351 5354 5357 5361 5364 5368 5371 5375 5379 5383 5385 5387 5389 5394 5398 5402 5406 5411